TAM3350 SBGR-SBSV

Flight info

Callsign TAM3350
Flight time 1h 47m
Altitude 35000
Route VUMEV UZ14 ZUMBA
Aircraft A319/M-SDE3FGHIRWY/LB1

Departure

Time 2026-05-05 19:06
Airport São Paulo/Guarulhos–Governor André Franco Montoro International Airport (SBGR)

Arrival

Time 2026-05-05 20:54
Airport Deputado Luiz Eduardo Magalhães International Airport (SBSV)
Time Latitude Longitude Altitude Speed Heading
2026-05-05 18:46 -23.42861 -46.48234 2469 ft 0 kts 293°
2026-05-05 18:59 -23.42866 -46.48223 2468 ft 2 kts 293°
2026-05-05 18:59 -23.42872 -46.48208 2468 ft 2 kts 293°
2026-05-05 18:59 -23.42876 -46.48198 2468 ft 1 kts 293°
2026-05-05 18:59 -23.42878 -46.48184 2468 ft 2 kts 248°
2026-05-05 19:00 -23.42868 -46.48172 2468 ft 2 kts 199°
2026-05-05 19:00 -23.42860 -46.48170 2468 ft 1 kts 172°
2026-05-05 19:00 -23.42853 -46.48172 2468 ft 0 kts 173°
2026-05-05 19:02 -23.42866 -46.48170 2468 ft 3 kts 174°
2026-05-05 19:03 -23.42902 -46.48157 2468 ft 7 kts 156°
2026-05-05 19:03 -23.42948 -46.48143 2468 ft 6 kts 173°
2026-05-05 19:03 -23.42992 -46.48138 2468 ft 6 kts 174°
2026-05-05 19:03 -23.43052 -46.48132 2468 ft 10 kts 174°
2026-05-05 19:04 -23.43120 -46.48122 2468 ft 9 kts 168°
2026-05-05 19:04 -23.43182 -46.48104 2468 ft 8 kts 163°
2026-05-05 19:04 -23.43216 -46.48093 2468 ft 2 kts 164°
2026-05-05 19:04 -23.43249 -46.48083 2468 ft 10 kts 163°
2026-05-05 19:05 -23.43324 -46.48058 2468 ft 11 kts 154°
2026-05-05 19:05 -23.43333 -46.47979 2468 ft 19 kts 73°
2026-05-05 19:05 -23.43230 -46.47596 2468 ft 83 kts 73°
2026-05-05 19:05 -23.43010 -46.46783 2469 ft 138 kts 73°
2026-05-05 19:06 -23.42700 -46.45623 2550 ft 173 kts 73°
2026-05-05 19:06 -23.42340 -46.44395 3082 ft 170 kts 71°
2026-05-05 19:06 -23.41971 -46.43155 3368 ft 181 kts 72°
2026-05-05 19:06 -23.41576 -46.41796 3637 ft 196 kts 73°
2026-05-05 19:07 -23.41156 -46.40329 3911 ft 211 kts 72°
2026-05-05 19:07 -23.40698 -46.38721 4162 ft 232 kts 72°
2026-05-05 19:07 -23.40166 -46.36995 4506 ft 250 kts 68°
2026-05-05 19:07 -23.39388 -46.35232 4876 ft 267 kts 60°
2026-05-05 19:08 -23.38406 -46.33488 5504 ft 274 kts 57°
2026-05-05 19:08 -23.37383 -46.31743 6285 ft 276 kts 56°
2026-05-05 19:08 -23.36094 -46.30215 7104 ft 279 kts 36°
2026-05-05 19:08 -23.34456 -46.29094 7939 ft 281 kts 30°
2026-05-05 19:09 -23.32752 -46.28034 8747 ft 285 kts 31°
2026-05-05 19:09 -23.31036 -46.26943 9562 ft 289 kts 31°
2026-05-05 19:09 -23.29341 -46.25829 10358 ft 291 kts 32°
2026-05-05 19:09 -23.27596 -46.24654 10984 ft 302 kts 32°
2026-05-05 19:10 -23.25775 -46.23410 11453 ft 315 kts 32°
2026-05-05 19:10 -23.23911 -46.22126 12127 ft 320 kts 32°
2026-05-05 19:10 -23.22026 -46.20822 12790 ft 324 kts 32°
2026-05-05 19:10 -23.20118 -46.19499 13453 ft 328 kts 32°
2026-05-05 19:11 -23.18186 -46.18161 14126 ft 331 kts 32°
2026-05-05 19:11 -23.16230 -46.16810 14756 ft 335 kts 33°
2026-05-05 19:11 -23.14254 -46.15440 15376 ft 339 kts 33°
2026-05-05 19:11 -23.12261 -46.14057 15994 ft 342 kts 33°
2026-05-05 19:12 -23.10250 -46.12662 16609 ft 344 kts 33°
2026-05-05 19:12 -23.08222 -46.11255 17201 ft 348 kts 33°
2026-05-05 19:12 -23.06174 -46.09834 17759 ft 351 kts 33°
2026-05-05 19:12 -23.04103 -46.08397 18320 ft 355 kts 33°
2026-05-05 19:13 -23.02017 -46.06950 18864 ft 360 kts 33°
2026-05-05 19:13 -22.99893 -46.05479 19404 ft 364 kts 33°
2026-05-05 19:13 -22.97745 -46.03991 19945 ft 368 kts 32°
2026-05-05 19:13 -22.95568 -46.02485 20485 ft 373 kts 32°
2026-05-05 19:14 -22.93392 -46.00980 20997 ft 377 kts 32°
2026-05-05 19:14 -22.91161 -45.99439 21514 ft 382 kts 32°
2026-05-05 19:14 -22.88912 -45.97878 22034 ft 385 kts 33°
2026-05-05 19:14 -22.86687 -45.96230 22551 ft 389 kts 34°
2026-05-05 19:15 -22.84452 -45.94550 23045 ft 393 kts 35°
2026-05-05 19:15 -22.82194 -45.92849 23541 ft 397 kts 35°
2026-05-05 19:15 -22.79915 -45.91132 24047 ft 400 kts 35°
2026-05-05 19:15 -22.77622 -45.89404 24547 ft 403 kts 35°
2026-05-05 19:16 -22.75307 -45.87660 25006 ft 407 kts 35°
2026-05-05 19:16 -22.72973 -45.85902 25462 ft 410 kts 35°
2026-05-05 19:16 -22.70619 -45.84131 25926 ft 413 kts 35°
2026-05-05 19:16 -22.68247 -45.82348 26357 ft 417 kts 35°
2026-05-05 19:17 -22.65886 -45.80573 26776 ft 420 kts 35°
2026-05-05 19:17 -22.63472 -45.78759 27205 ft 423 kts 34°
2026-05-05 19:17 -22.61043 -45.76935 27604 ft 427 kts 34°
2026-05-05 19:17 -22.58594 -45.75096 27996 ft 430 kts 34°
2026-05-05 19:18 -22.56126 -45.73245 28398 ft 433 kts 34°
2026-05-05 19:18 -22.53643 -45.71383 28800 ft 435 kts 34°
2026-05-05 19:18 -22.51143 -45.69510 29185 ft 438 kts 35°
2026-05-05 19:18 -22.48627 -45.67625 29537 ft 441 kts 34°
2026-05-05 19:19 -22.46093 -45.65727 29880 ft 444 kts 35°
2026-05-05 19:19 -22.43540 -45.63815 30192 ft 448 kts 34°
2026-05-05 19:19 -22.40966 -45.61888 30530 ft 451 kts 34°
2026-05-05 19:19 -22.38414 -45.59978 30852 ft 454 kts 34°
2026-05-05 19:20 -22.35808 -45.58029 31160 ft 457 kts 34°
2026-05-05 19:20 -22.33183 -45.56067 31483 ft 459 kts 34°
2026-05-05 19:20 -22.30543 -45.54096 31791 ft 462 kts 34°
2026-05-05 19:20 -22.27887 -45.52113 32077 ft 465 kts 34°
2026-05-05 19:21 -22.25213 -45.50117 32386 ft 468 kts 34°
2026-05-05 19:21 -22.22534 -45.48117 32770 ft 468 kts 34°
2026-05-05 19:21 -22.19855 -45.46120 33194 ft 467 kts 34°
2026-05-05 19:21 -22.17178 -45.44127 33599 ft 467 kts 34°
2026-05-05 19:22 -22.14503 -45.42133 33985 ft 467 kts 34°
2026-05-05 19:22 -22.11826 -45.40139 34373 ft 467 kts 34°
2026-05-05 19:22 -22.09147 -45.38147 34762 ft 467 kts 34°
2026-05-05 19:22 -22.06472 -45.36156 35142 ft 467 kts 34°
2026-05-05 19:23 -22.03812 -45.34139 35501 ft 467 kts 36°
2026-05-05 19:23 -22.01243 -45.32015 35805 ft 468 kts 37°
2026-05-05 19:23 -21.98666 -45.29840 36090 ft 469 kts 38°
2026-05-05 19:23 -21.96097 -45.27663 36340 ft 470 kts 38°
2026-05-05 19:24 -21.93519 -45.25481 36591 ft 471 kts 38°
2026-05-05 19:24 -21.90930 -45.23292 36810 ft 473 kts 38°
2026-05-05 19:24 -21.88353 -45.21116 37005 ft 475 kts 38°
2026-05-05 19:24 -21.85746 -45.18917 37184 ft 477 kts 38°
2026-05-05 19:25 -21.80470 -45.14476 37283 ft 487 kts 38°
2026-05-05 19:25 -21.75075 -45.09936 37286 ft 497 kts 38°
2026-05-05 19:26 -21.69635 -45.05364 37288 ft 501 kts 38°
2026-05-05 19:26 -21.64138 -45.00749 37284 ft 501 kts 38°
2026-05-05 19:27 -21.58643 -44.96139 37277 ft 501 kts 38°
2026-05-05 19:27 -21.53151 -44.91534 37273 ft 500 kts 38°
2026-05-05 19:28 -21.47651 -44.86930 37271 ft 501 kts 38°
2026-05-05 19:28 -21.42150 -44.82328 37270 ft 501 kts 38°
2026-05-05 19:29 -21.36690 -44.77767 37270 ft 500 kts 38°
2026-05-05 19:29 -21.31189 -44.73174 37267 ft 501 kts 38°
2026-05-05 19:30 -21.25686 -44.68580 37265 ft 500 kts 38°
2026-05-05 19:30 -21.20187 -44.63997 37265 ft 500 kts 38°
2026-05-05 19:31 -21.14688 -44.59419 37264 ft 500 kts 38°
2026-05-05 19:31 -21.09191 -44.54845 37272 ft 500 kts 38°
2026-05-05 19:32 -21.03697 -44.50275 37274 ft 500 kts 38°
2026-05-05 19:32 -20.98234 -44.45738 37274 ft 499 kts 38°
2026-05-05 19:33 -20.92729 -44.41175 37277 ft 500 kts 38°
2026-05-05 19:33 -20.87244 -44.36632 37279 ft 500 kts 38°
2026-05-05 19:34 -20.81716 -44.32058 37283 ft 501 kts 37°
2026-05-05 19:35 -20.73452 -44.25228 37285 ft 500 kts 37°
2026-05-05 19:35 -20.67940 -44.20677 37272 ft 500 kts 37°
2026-05-05 19:36 -20.62466 -44.16154 37264 ft 501 kts 38°
2026-05-05 19:36 -20.57002 -44.11544 37253 ft 500 kts 38°
2026-05-05 19:37 -20.51542 -44.06934 37249 ft 500 kts 38°
2026-05-05 19:37 -20.46043 -44.02388 37250 ft 500 kts 37°
2026-05-05 19:38 -20.40509 -43.97878 37257 ft 500 kts 37°
2026-05-05 19:38 -20.34980 -43.93365 37255 ft 501 kts 37°
2026-05-05 19:39 -20.29446 -43.88846 37259 ft 500 kts 37°
2026-05-05 19:39 -20.23955 -43.84366 37258 ft 500 kts 37°
2026-05-05 19:40 -20.18425 -43.79857 37257 ft 500 kts 37°
2026-05-05 19:40 -20.12899 -43.75354 37257 ft 500 kts 37°
2026-05-05 19:41 -20.07377 -43.70858 37257 ft 499 kts 37°
2026-05-05 19:41 -20.01853 -43.66367 37262 ft 499 kts 37°
2026-05-05 19:42 -19.96318 -43.61867 37256 ft 499 kts 37°
2026-05-05 19:42 -19.90827 -43.57408 37259 ft 500 kts 37°
2026-05-05 19:43 -19.85302 -43.52919 37246 ft 500 kts 37°
2026-05-05 19:43 -19.79778 -43.48427 37246 ft 499 kts 37°
2026-05-05 19:44 -19.74257 -43.43942 37240 ft 499 kts 37°
2026-05-05 19:44 -19.68739 -43.39463 37231 ft 499 kts 37°
2026-05-05 19:45 -19.63222 -43.34991 37238 ft 498 kts 37°
2026-05-05 19:45 -19.57708 -43.30523 37230 ft 498 kts 36°
2026-05-05 19:46 -19.52239 -43.26095 37222 ft 498 kts 36°
2026-05-05 19:46 -19.46728 -43.21638 37221 ft 498 kts 36°
2026-05-05 19:47 -19.41218 -43.17185 37217 ft 497 kts 36°
2026-05-05 19:47 -19.35705 -43.12734 37211 ft 497 kts 36°
2026-05-05 19:48 -19.30194 -43.08288 37198 ft 497 kts 36°
2026-05-05 19:48 -19.24686 -43.03847 37201 ft 497 kts 36°
2026-05-05 19:49 -19.19175 -42.99408 37192 ft 498 kts 36°
2026-05-05 19:49 -19.13700 -42.95002 37193 ft 497 kts 36°
2026-05-05 19:50 -19.08194 -42.90573 37196 ft 496 kts 36°
2026-05-05 19:50 -19.02694 -42.86154 37189 ft 496 kts 36°
2026-05-05 19:51 -18.97183 -42.81731 37194 ft 496 kts 36°
2026-05-05 19:51 -18.91678 -42.77315 37199 ft 496 kts 36°
2026-05-05 19:52 -18.86175 -42.72909 37204 ft 496 kts 36°
2026-05-05 19:52 -18.80667 -42.68501 37215 ft 496 kts 36°
2026-05-05 19:53 -18.75159 -42.64097 37227 ft 496 kts 36°
2026-05-05 19:53 -18.69688 -42.59725 37221 ft 496 kts 36°
2026-05-05 19:54 -18.64171 -42.55321 37224 ft 497 kts 36°
2026-05-05 19:54 -18.58650 -42.50917 37211 ft 497 kts 36°
2026-05-05 19:55 -18.53137 -42.46521 37205 ft 496 kts 36°
2026-05-05 19:55 -18.47630 -42.42134 37198 ft 496 kts 36°
2026-05-05 19:56 -18.42125 -42.37752 37199 ft 495 kts 36°
2026-05-05 19:56 -18.36660 -42.33405 37201 ft 495 kts 36°
2026-05-05 19:57 -18.31133 -42.29012 37209 ft 495 kts 35°
2026-05-05 19:57 -18.25628 -42.24645 37216 ft 495 kts 35°
2026-05-05 19:58 -18.20157 -42.20309 37211 ft 496 kts 35°
2026-05-05 19:58 -18.14644 -42.15941 37199 ft 495 kts 36°
2026-05-05 19:59 -18.09135 -42.11579 37185 ft 495 kts 35°
2026-05-05 19:59 -18.03637 -42.07229 37186 ft 494 kts 35°
2026-05-05 20:00 -17.98132 -42.02877 37186 ft 494 kts 35°
2026-05-05 20:00 -17.92636 -41.98534 37188 ft 494 kts 35°
2026-05-05 20:01 -17.87180 -41.94226 37194 ft 493 kts 35°
2026-05-05 20:01 -17.81679 -41.89888 37196 ft 493 kts 35°
2026-05-05 20:02 -17.76185 -41.85559 37196 ft 494 kts 35°
2026-05-05 20:02 -17.70678 -41.81223 37199 ft 495 kts 35°
2026-05-05 20:03 -17.65165 -41.76884 37194 ft 495 kts 35°
2026-05-05 20:03 -17.59651 -41.72550 37184 ft 495 kts 35°
2026-05-05 20:04 -17.54143 -41.68223 37180 ft 494 kts 35°
2026-05-05 20:04 -17.48676 -41.63930 37173 ft 494 kts 35°
2026-05-05 20:05 -17.43168 -41.59609 37171 ft 494 kts 35°
2026-05-05 20:05 -17.37658 -41.55291 37172 ft 495 kts 35°
2026-05-05 20:06 -17.32142 -41.50972 37164 ft 494 kts 35°
2026-05-05 20:06 -17.26630 -41.46659 37168 ft 494 kts 35°
2026-05-05 20:07 -17.21119 -41.42349 37171 ft 494 kts 35°
2026-05-05 20:07 -17.15608 -41.38041 37168 ft 494 kts 35°
2026-05-05 20:08 -17.10114 -41.33750 37167 ft 494 kts 34°
2026-05-05 20:08 -17.04582 -41.29433 37170 ft 494 kts 34°
2026-05-05 20:09 -16.99058 -41.25126 37169 ft 494 kts 34°
2026-05-05 20:09 -16.93532 -41.20821 37171 ft 495 kts 34°
2026-05-05 20:10 -16.88042 -41.16546 37165 ft 495 kts 34°
2026-05-05 20:10 -16.82501 -41.12235 37168 ft 494 kts 34°
2026-05-05 20:11 -16.77029 -41.07980 37169 ft 493 kts 34°
2026-05-05 20:11 -16.71516 -41.03698 37168 ft 494 kts 34°
2026-05-05 20:12 -16.66005 -40.99419 37164 ft 493 kts 34°
2026-05-05 20:12 -16.60502 -40.95150 37166 ft 492 kts 34°
2026-05-05 20:13 -16.55005 -40.90889 37171 ft 492 kts 34°
2026-05-05 20:13 -16.49509 -40.86632 37171 ft 491 kts 34°
2026-05-05 20:14 -16.44017 -40.82379 37168 ft 491 kts 34°
2026-05-05 20:14 -16.38567 -40.78163 37158 ft 490 kts 34°
2026-05-05 20:15 -16.33082 -40.73924 37152 ft 490 kts 34°
2026-05-05 20:15 -16.27602 -40.69691 37146 ft 490 kts 34°
2026-05-05 20:16 -16.22119 -40.65460 37137 ft 490 kts 34°
2026-05-05 20:16 -16.16641 -40.61234 37138 ft 490 kts 34°
2026-05-05 20:17 -16.11163 -40.57011 37139 ft 489 kts 34°
2026-05-05 20:17 -16.05727 -40.52823 37136 ft 489 kts 34°
2026-05-05 20:18 -16.00252 -40.48609 37135 ft 489 kts 34°
2026-05-05 20:18 -15.94770 -40.44392 37139 ft 489 kts 34°
2026-05-05 20:19 -15.89317 -40.40207 37140 ft 488 kts 34°
2026-05-05 20:19 -15.83848 -40.36014 37146 ft 488 kts 34°
2026-05-05 20:20 -15.78377 -40.31820 37146 ft 488 kts 33°
2026-05-05 20:20 -15.72912 -40.27633 37144 ft 488 kts 33°
2026-05-05 20:21 -15.67444 -40.23447 37140 ft 488 kts 33°
2026-05-05 20:21 -15.61973 -40.19261 37144 ft 488 kts 33°
2026-05-05 20:22 -15.56502 -40.15082 37139 ft 488 kts 33°
2026-05-05 20:22 -15.51028 -40.10910 37135 ft 487 kts 33°
2026-05-05 20:23 -15.45592 -40.06769 37130 ft 488 kts 33°
2026-05-05 20:23 -15.40118 -40.02602 37121 ft 487 kts 33°
2026-05-05 20:24 -15.34646 -39.98440 37114 ft 487 kts 33°
2026-05-05 20:24 -15.29174 -39.94281 37115 ft 487 kts 33°
2026-05-05 20:25 -15.23709 -39.90129 37106 ft 486 kts 33°
2026-05-05 20:25 -15.18246 -39.85979 37104 ft 486 kts 33°
2026-05-05 20:26 -15.12776 -39.81829 37110 ft 487 kts 33°
2026-05-05 20:26 -15.07348 -39.77711 37118 ft 486 kts 33°
2026-05-05 20:27 -15.01880 -39.73581 37110 ft 485 kts 32°
2026-05-05 20:27 -14.96141 -39.69885 37112 ft 482 kts 25°
2026-05-05 20:28 -14.90153 -39.66765 37112 ft 481 kts 22°
2026-05-05 20:28 -14.84138 -39.63703 37105 ft 480 kts 22°
2026-05-05 20:29 -14.78177 -39.60661 37096 ft 480 kts 22°
2026-05-05 20:29 -14.72173 -39.57593 37025 ft 480 kts 22°
2026-05-05 20:29 -14.69180 -39.56061 36753 ft 478 kts 22°
2026-05-05 20:30 -14.66185 -39.54531 36477 ft 477 kts 22°
2026-05-05 20:30 -14.63194 -39.53003 36199 ft 477 kts 22°
2026-05-05 20:30 -14.60257 -39.51503 35871 ft 477 kts 22°
2026-05-05 20:30 -14.57280 -39.49982 35409 ft 476 kts 22°
2026-05-05 20:31 -14.54304 -39.48463 34829 ft 477 kts 22°
2026-05-05 20:31 -14.51327 -39.46944 34180 ft 477 kts 22°
2026-05-05 20:31 -14.48349 -39.45425 33515 ft 477 kts 23°
2026-05-05 20:31 -14.45373 -39.43907 32848 ft 476 kts 23°
2026-05-05 20:32 -14.42405 -39.42394 32201 ft 475 kts 23°
2026-05-05 20:32 -14.39442 -39.40884 31519 ft 474 kts 23°
2026-05-05 20:32 -14.36486 -39.39378 30810 ft 473 kts 23°
2026-05-05 20:32 -14.33534 -39.37875 30087 ft 473 kts 24°
2026-05-05 20:33 -14.30587 -39.36374 29388 ft 470 kts 24°
2026-05-05 20:33 -14.27668 -39.34887 28882 ft 463 kts 24°
2026-05-05 20:33 -14.24797 -39.33424 28388 ft 456 kts 24°
2026-05-05 20:33 -14.22002 -39.32000 27888 ft 450 kts 24°
2026-05-05 20:34 -14.19204 -39.30577 27384 ft 445 kts 24°
2026-05-05 20:34 -14.16441 -39.29171 26883 ft 439 kts 24°
2026-05-05 20:34 -14.13712 -39.27783 26389 ft 434 kts 24°
2026-05-05 20:34 -14.11016 -39.26413 25898 ft 429 kts 24°
2026-05-05 20:35 -14.08349 -39.25057 25406 ft 424 kts 25°
2026-05-05 20:35 -14.05711 -39.23716 24927 ft 420 kts 25°
2026-05-05 20:35 -14.03099 -39.22391 24449 ft 416 kts 25°
2026-05-05 20:35 -14.00513 -39.21078 23974 ft 412 kts 25°
2026-05-05 20:36 -13.97945 -39.19774 23501 ft 408 kts 25°
2026-05-05 20:36 -13.95402 -39.18484 23032 ft 405 kts 25°
2026-05-05 20:36 -13.92879 -39.17204 22562 ft 402 kts 26°
2026-05-05 20:36 -13.90370 -39.15931 22101 ft 400 kts 26°
2026-05-05 20:37 -13.87894 -39.14674 21645 ft 398 kts 26°
2026-05-05 20:37 -13.86234 -39.13832 21335 ft 397 kts 26°
2026-05-05 20:37 -13.82949 -39.12166 20718 ft 395 kts 26°
2026-05-05 20:37 -13.80487 -39.10918 20260 ft 393 kts 26°
2026-05-05 20:38 -13.78034 -39.09674 19799 ft 392 kts 27°
2026-05-05 20:38 -13.75591 -39.08436 19339 ft 390 kts 27°
2026-05-05 20:38 -13.73156 -39.07202 18876 ft 388 kts 27°
2026-05-05 20:38 -13.70784 -39.05884 18412 ft 386 kts 32°
2026-05-05 20:39 -13.68546 -39.04364 17948 ft 384 kts 37°
2026-05-05 20:39 -13.66437 -39.02685 17479 ft 382 kts 39°
2026-05-05 20:39 -13.64366 -39.00979 17007 ft 380 kts 40°
2026-05-05 20:39 -13.62309 -38.99279 16543 ft 378 kts 40°
2026-05-05 20:40 -13.60260 -38.97588 16072 ft 376 kts 40°
2026-05-05 20:40 -13.58224 -38.95911 15598 ft 374 kts 40°
2026-05-05 20:40 -13.56198 -38.94246 15133 ft 371 kts 40°
2026-05-05 20:40 -13.54214 -38.92616 14671 ft 368 kts 41°
2026-05-05 20:41 -13.52217 -38.90974 14213 ft 366 kts 41°
2026-05-05 20:41 -13.50234 -38.89346 13747 ft 363 kts 41°
2026-05-05 20:41 -13.48266 -38.87732 13282 ft 360 kts 41°
2026-05-05 20:41 -13.46314 -38.86129 12830 ft 357 kts 41°
2026-05-05 20:42 -13.44378 -38.84541 12364 ft 355 kts 41°
2026-05-05 20:42 -13.42452 -38.82962 11892 ft 353 kts 41°
2026-05-05 20:42 -13.40538 -38.81393 11422 ft 351 kts 41°
2026-05-05 20:42 -13.38635 -38.79832 10950 ft 349 kts 41°
2026-05-05 20:43 -13.36744 -38.78283 10549 ft 344 kts 41°
2026-05-05 20:43 -13.34887 -38.76760 10209 ft 338 kts 41°
2026-05-05 20:43 -13.33072 -38.75272 10051 ft 326 kts 41°
2026-05-05 20:43 -13.31321 -38.73835 10044 ft 319 kts 41°
2026-05-05 20:44 -13.29592 -38.72416 9946 ft 315 kts 42°
2026-05-05 20:44 -13.27909 -38.71030 9520 ft 315 kts 42°
2026-05-05 20:44 -13.26192 -38.69625 9067 ft 315 kts 41°
2026-05-05 20:44 -13.24477 -38.68226 8666 ft 314 kts 41°
2026-05-05 20:45 -13.21067 -38.65444 7882 ft 311 kts 41°
2026-05-05 20:45 -13.19376 -38.64064 7495 ft 309 kts 41°
2026-05-05 20:45 -13.17698 -38.62693 7119 ft 307 kts 41°
2026-05-05 20:46 -13.16032 -38.61331 6794 ft 303 kts 41°
2026-05-05 20:46 -13.14404 -38.60002 6629 ft 294 kts 41°
2026-05-05 20:46 -13.12825 -38.58714 6471 ft 285 kts 41°
2026-05-05 20:46 -13.11293 -38.57464 6309 ft 276 kts 41°
2026-05-05 20:47 -13.09806 -38.56249 6157 ft 268 kts 41°
2026-05-05 20:47 -13.08365 -38.55073 5930 ft 259 kts 42°
2026-05-05 20:47 -13.06979 -38.53944 5636 ft 248 kts 42°
2026-05-05 20:47 -13.05668 -38.52874 5246 ft 240 kts 42°
2026-05-05 20:48 -13.04287 -38.51948 4853 ft 237 kts 26°
2026-05-05 20:48 -13.02695 -38.51517 4482 ft 235 kts 13°
2026-05-05 20:48 -13.01090 -38.51276 4141 ft 229 kts 11°
2026-05-05 20:48 -12.99519 -38.51062 3823 ft 223 kts 11°
2026-05-05 20:49 -12.97993 -38.50846 3501 ft 218 kts 12°
2026-05-05 20:49 -12.96490 -38.50626 3221 ft 217 kts 12°
2026-05-05 20:49 -12.95079 -38.50180 3048 ft 206 kts 40°
2026-05-05 20:49 -12.94231 -38.49092 2927 ft 192 kts 72°
2026-05-05 20:50 -12.93888 -38.47807 2774 ft 183 kts 83°
2026-05-05 20:50 -12.93683 -38.46540 2510 ft 182 kts 84°
2026-05-05 20:50 -12.93470 -38.45278 2274 ft 177 kts 83°
2026-05-05 20:50 -12.93241 -38.44076 2018 ft 166 kts 83°
2026-05-05 20:51 -12.93013 -38.42953 1786 ft 156 kts 83°
2026-05-05 20:51 -12.92796 -38.41898 1580 ft 146 kts 83°
2026-05-05 20:51 -12.92594 -38.40905 1393 ft 139 kts 83°
2026-05-05 20:51 -12.92398 -38.39936 1234 ft 138 kts 84°
2026-05-05 20:52 -12.92204 -38.38973 1067 ft 137 kts 83°
2026-05-05 20:52 -12.92015 -38.38025 909 ft 137 kts 84°
2026-05-05 20:52 -12.91823 -38.37065 734 ft 137 kts 83°
2026-05-05 20:52 -12.91629 -38.36109 555 ft 137 kts 82°
2026-05-05 20:53 -12.91437 -38.35156 387 ft 136 kts 83°
2026-05-05 20:53 -12.91246 -38.34205 208 ft 136 kts 82°
2026-05-05 20:53 -12.91064 -38.33260 46 ft 134 kts 77°
2026-05-05 20:53 -12.90896 -38.32429 43 ft 95 kts 78°
2026-05-05 20:54 -12.90795 -38.31933 52 ft 46 kts 78°
2026-05-05 20:54 -12.90771 -38.31762 54 ft 15 kts 107°
2026-05-05 20:54 -12.90861 -38.31708 55 ft 15 kts 171°
2026-05-05 20:54 -12.90925 -38.31784 53 ft 17 kts 258°
2026-05-05 20:55 -12.90950 -38.31911 51 ft 19 kts 258°
2026-05-05 20:55 -12.90978 -38.32052 48 ft 21 kts 258°
2026-05-05 20:55 -12.91009 -38.32205 46 ft 22 kts 258°
2026-05-05 20:55 -12.91041 -38.32367 44 ft 23 kts 258°
2026-05-05 20:56 -12.91075 -38.32535 42 ft 24 kts 258°
2026-05-05 20:56 -12.91109 -38.32705 41 ft 24 kts 258°
2026-05-05 20:56 -12.91143 -38.32875 41 ft 24 kts 258°
2026-05-05 20:56 -12.91174 -38.33031 41 ft 19 kts 258°
2026-05-05 20:57 -12.91194 -38.33131 41 ft 9 kts 258°
2026-05-05 20:57 -12.91226 -38.33181 41 ft 9 kts 176°
2026-05-05 20:57 -12.91294 -38.33167 41 ft 9 kts 168°
2026-05-05 20:57 -12.91359 -38.33154 42 ft 8 kts 169°
2026-05-05 20:58 -12.91398 -38.33150 42 ft 3 kts 215°
2026-05-05 20:58 -12.91400 -38.33179 42 ft 3 kts 272°
2026-05-05 20:58 -12.91399 -38.33199 42 ft 0 kts 272°
2026-05-05 20:58 -12.91399 -38.33200 42 ft 0 kts 272°